NOAA 16 DEB, 41155

Orbit data source: Space-Track

NOAA 16 DEB, 41155 is space debris in SSO originally from a launch on Thu, 21 Sep 2000 UTC launched from the Air Force Western Test Range (AFWTR). Debris objects in space refer to the collection of defunct objects orbiting the Earth. Examples of debris include non-operational satellites, rocket bodies, and fragments generated from explosions, collisions, or faulty payload assembly.

Loading next visibility...
Identifier
41155, 2000-055CN
Orbit
SSO
Country
Flag of USUS
Related business
Manufacturer
Unknown
Mission
Spacecraft
Bus & Motor
Unknown
Mass
Unknown
Launch date (UTC)
2000-09-21 (26 years ago)
Launch vehicle
Unknown
Launch site
Air Force Western Test Range (AFWTR)
Object type
Payload
Rocket body
Debris
Shape & HBR
Unknown shape, 0.1 m
Radar Cross Section
Medium (>0.1 m² and <1 m²)

Expand to show TLE details & history
Last TLE update: 17 hours ago

TLE from 17 hours ago
0 NOAA 16 DEB
1 41155U 00055CN  26254.17707579  .00003243  00000-0  10816-2 0  9998
2 41155  98.8944  30.3809 0015739 270.3967  89.5415 14.38198621558690
Epoch: 2026-09-11T04:14Z
TLE epoch observation values (Epoch: 2026-09-11T04:14:59.348Z)
Latitude
-0.00005°
Longitude
-23.57055°
Altitude
767.317 km
Speed
7.471 km/s
True Right ascension
02h 01m 31s
True Declination
0° 00' 00"
Sunlit
Object was in full shadow at epoch
Visualization orbit readout
Latitude
Unknown
Longitude
Unknown
Altitude
Unknown
Speed
Unknown
Apparent Right ascension
Unknown
Apparent Declination
Unknown
Sunlit
N/A
Visualization observer readout
Local Sidereal Time
13:18:26
Azimuth
Unknown
Elevation
Unknown
Doppler factor
Unknown
Orbital elements
Apogee altitude
772.837 km
Perigee altitude
750.362 km
Semi-major axis
7,139.737 km
Eccentricity
0.00157
Inclination
98.8944°
RAAN
30.3809°
Arg. of periapsis
270.3967°
True anomaly
89.72185°
Mean anomaly
89.5415°
Eccentric anomaly
89.63168°
Mean motion
3.59766 °/min
Orbital period
100.07 mins
BSTAR
0.0010816
Loading maneuver chart data...
Computing Atmospheric mass density...
Loading historical data...
Loading historical data...
Loading historical data...
Loading historical data...
Loading historical data...
Loading historical data...
Loading historical data...

Documentation

Showing up to 5 results
|